Location: Carr Mill
(33.2054°N, 85.9439°W)
Time: 16:55:06
(UTC+00:00)

ISS - Pass Details

Date: 27 June 2021
Orbit: 419 x 421 km, 51.6° (Epoch: 02 August)

Event Time Altitude Azimuth Distance (km) Brightness Sun altitude
Exits shadow 08:27:55 37° 108° (ESE) 660 -2.7 -21.7°
Drops below altitude 10° 08:30:37 10° 61° (ENE) 1,496 0.0 -21.3°
Sets 08:32:48 0° 54° (NE) 2,363 1.5 -21.0°
